Regional Weather Roundup
Issued by NWS

Home | Current Version | Previous Version | Text Only | Print | Product List | Glossary On
Versions: 1 2 3 4 5 6 7 8 9 10 11 12 13 14 15 16 17 18 19 20 21 22 23 24 25 26 27 28 29 30 31 32 33 34 35 36 37 38 39 40 41 42 43 44 45 46 47 48 49 50
000
ASUS43 KFSD 070110
RWRSD

WEATHER ROUNDUP FOR SOUTH DAKOTA
NATIONAL WEATHER SERVICE SIOUX FALLS SD
700 PM CST FRI MAR 06 2015

NOTE: "FAIR" INDICATES FEW OR NO CLOUDS BELOW 12,000 FEET WITH NO
SIGNIFICANT WEATHER AND/OR OBSTRUCTIONS TO VISIBILITY.


SDZ001>005-009-010-012>017-070200-
NORTHWEST AND NORTH CENTRAL SOUTH DAKOTA

CITY           SKY/WX    TMP DP  RH WIND       PRES   REMARKS
BUFFALO          N/A     46  20  35 W13       29.97S
FAITH            N/A     48  18  30 NW10      30.03R
MOBRIDGE       CLOUDY    44  22  41 CALM      29.96S
$$

SDZ012>016-024>037-041>051-057-063-072>074-070200-
SOUTHWEST AND SOUTH CENTRAL SOUTH DAKOTA

CITY           SKY/WX    TMP DP  RH WIND       PRES   REMARKS
RAPID CTY ARPT CLEAR     44  22  41 NW12      30.10R
PIERRE         PTCLDY    43  24  47 CALM      30.01R
CUSTER         CLEAR     41  18  39 W10       30.13R
ELLSWORTH AFB  CLEAR     48  24  39 NW13      30.09R
PHILIP         CLEAR     48  19  31 W10       30.06R
PINE RIDGE     CLEAR     46  22  38 W14G22    30.12R
SPEARFISH      FAIR      45  23  42 W8        30.11S
WINNER         FAIR      45  20  36 SW9       30.06S
$$

SDZ004>011-016>023-039-040-070200-
NORTHEAST SOUTH DAKOTA

CITY           SKY/WX    TMP DP  RH WIND       PRES   REMARKS
ABERDEEN       CLOUDY    35  27  72 S9        30.02F WCI  28
WATERTOWN      CLOUDY    32  25  75 W5        30.05S WCI  27
$$

SDZ017-020-022-023-036>040-048>070-070200-
SOUTHEAST SOUTH DAKOTA

CITY           SKY/WX    TMP DP  RH WIND       PRES   REMARKS
SIOUX FALLS    PTCLDY    35  22  58 CALM      30.08S
HURON          MOCLDY    36  24  62 SE6       30.05F
CHAMBERLAIN    CLEAR     38  21  49 SW5       30.04S
MITCHELL       CLEAR     40  20  44 E7        30.08R
YANKTON        CLOUDY    46  19  34 E3        30.09S
$$

ABBREVIATIONS USED IN REMARKS
   TC - TEMPERATURE IN CELSIUS
  WCI - WIND CHILL INDEX
   HX - HEAT INDEX
  VSB - VISIBILITY



USA.gov is the U.S. government's official web portal to all federal, state and local government web resources and services.